[[{"header":{"parameterUnit":"m.s-1","parameterCategory":1,"la1":30.2991,"la2":30.254,"lo1":-89.0895,"lo2":-89.0444,"dy":0.0017,"dx":0.0017,"nx":28,"ny":28,"refTime":"2024-05-29T03:00:00:Z","depth":0,"parameterNumber":2,"parameterNumberName":"U-component_of_WINDS"},"data":[0,0,0,0,0,0,0,0,0,0,0,0,0,0,0,0,0,0,0,0,0,0,0,0,0,0,0,0,0,0,0,0,0,0,0,0,0,0,0,0,0,0,0,0,0,0,0,0,0,0,0,0,0,0,0,0,0,0,-5.0201,-5.0201,0,-5.0188,-5.0187,-5.0187,-5.0092,-5.009,-5.0088,-5.0085,-5.0072,-5.0074,-5.0076,0,0,0,0,0,0,0,0,0,0,0,0,0,-5.0145,-5.0146,-5.0201,-5.0201,-5.0201,-5.0188,-5.0187,-5.0187,-5.0093,-5.009,-5.0087,-5.0084,-5.0071,-5.0074,-5.0076,0,0,0,0,0,0,0,0,0,0,0,0,0,-5.0154,-5.0147,-5.0201,-5.0152,-5.0147,-5.0188,-5.0187,-5.0187,-5.0093,-5.009,-5.0086,-5.0083,-5.0071,-5.0073,-5.0076,-5.0163,0,0,-5.0084,-5.0085,0,0,0,0,0,0,0,0,-5.0154,-5.0156,-5.0159,-5.0155,-5.015,-5.0138,-5.0163,-5.0179,-5.0094,-5.0114,-5.0085,-5.0081,-5.0097,-5.0097,-5.0102,-5.0162,-5.0161,-5.0085,-5.0086,-5.0087,-5.0088,0,0,0,0,0,0,0,-5.0153,-5.0156,-5.0196,-5.0159,-5.0154,-5.0131,-5.0128,-5.0165,-5.0125,-5.0112,-5.0105,-5.0105,-5.0094,-5.01,-5.0101,-5.0161,-5.0084,-5.0087,-5.0089,-5.009,-5.0293,-5.0297,0,0,0,0,0,0,-5.0159,-5.0156,-5.0196,-5.0195,-5.0143,-5.0134,-5.0132,-5.0145,-5.0124,-5.0118,-5.0108,-5.01,-5.0097,-5.0098,-5.01,-5.0202,-5.0087,-5.009,-5.0091,-5.0289,-5.0294,-5.0298,0,0,0,0,0,0,-5.0158,-5.0164,-5.0196,-5.0174,-5.0176,-5.0139,-5.0155,-5.0147,-5.0153,-5.0121,-5.0114,-5.0121,-5.0094,-5.0097,-5.0148,-5.02,-5.0091,-5.0094,-5.0285,-5.0291,-5.0296,-5.0405,0,0,0,0,0,0,-5.0157,-5.0164,-5.0196,-5.0175,-5.0178,-5.0245,-5.0159,-5.0149,-5.0158,-5.0148,-5.0132,-5.0126,-5.0092,-5.0145,-5.0151,-5.0202,-5.0096,-5.028,-5.0288,-5.0294,-5.0397,-5.0414,-5.0428,0,0,0,0,0,-5.0156,-5.0227,-5.0198,-5.0204,-5.0218,-5.0248,-5.0249,-5.0208,-5.0163,-5.0195,-5.0175,-5.0127,-5.0193,-5.0151,-5.0157,-5.021,-5.0277,-5.0285,-5.0294,-5.0389,-5.041,-5.0428,0,0,0,0,0,0,-5.0255,-5.0223,-5.0191,-5.0258,-5.0257,-5.0232,-5.0271,-5.0231,-5.0242,-5.0233,-5.0181,-5.0179,-5.0239,-5.0229,-5.0182,-5.0293,-5.0227,-5.0237,-5.0297,-5.0317,-5.0332,-5.0334,-5.0098,0,0,0,0,0,-5.0285,-5.0312,-5.0283,-5.0345,-5.0345,-5.0309,-5.0321,-5.0289,-5.0285,-5.0284,-5.0267,-5.0266,-5.0286,-5.0301,-5.0318,-5.0394,-5.039,-5.0434,-5.0449,-5.0463,-5.0472,-5.0514,-5.0533,-5.0326,-5.0326,-5.0326,0,0,-5.0346,-5.0332,-5.0353,-5.0364,-5.0359,-5.0389,-5.0309,-5.0343,-5.0365,-5.0289,-5.0337,-5.0325,-5.032,-5.0385,-5.0413,-5.0379,-5.0529,-5.0473,-5.0484,-5.0487,-5.0525,-5.0544,-5.0562,-5.0332,-5.0331,-5.033,0,0,-5.0474,-5.0466,-5.0517,-5.0514,-5.0508,-5.0483,-5.0496,-5.0477,-5.0467,-5.0514,-5.0458,-5.0483,-5.0519,-5.0518,-5.0523,-5.0652,-5.0608,-5.0659,-5.0742,-5.0783,-5.0799,-5.0813,-5.0861,-5.0878,-5.0668,-5.0668,-5.0669,0,-5.0551,-5.0594,-5.0549,-5.0588,-5.0595,-5.0528,-5.058,-5.0579,-5.0579,-5.0586,-5.0547,-5.0592,-5.0584,-5.0649,-5.068,-5.0685,-5.0699,-5.0661,-5.08,-5.0814,-5.0827,-5.0872,-5.089,-5.0675,-5.0674,-5.0673,-5.0673,0,-5.069,-5.0721,-5.0763,-5.0765,-5.0777,-5.0823,-5.0785,-5.0802,-5.077,-5.075,-5.08,-5.0787,-5.0802,-5.0814,-5.0783,-5.0875,-5.0855,-5.0809,-5.0742,-5.0854,-5.0895,-5.0912,-5.0684,-5.0681,-5.068,-5.0678,0,0,-5.088,-5.0858,-5.0874,-5.0875,-5.0863,-5.0886,-5.0929,-5.0943,-5.096,-5.0962,-5.0997,-5.103,-5.0988,-5.0993,-5.0961,-5.0997,-5.1102,-5.0947,-5.0946,-5.0978,-5.1205,-5.1241,-5.1261,-5.1073,-5.1076,-5.1079,-5.1206,0,-5.1004,-5.1076,-5.1037,-5.1115,-5.1143,-5.108,-5.1118,-5.1115,-5.1098,-5.1119,-5.1099,-5.1124,-5.1066,-5.1069,-5.1102,-5.1083,-5.1148,-5.1073,-5.1107,-5.1108,-5.1111,-5.1282,-5.1319,-5.1441,-5.1222,-5.1224,-5.1226,0,-5.1158,-5.1168,-5.1249,-5.1234,-5.1244,-5.1279,-5.1289,-5.131,-5.1307,-5.1291,-5.1298,-5.1257,-5.1299,-5.1232,-5.1289,-5.1239,-5.125,-5.1243,-5.1247,-5.1249,-5.1175,-5.1291,-5.1478,-5.1497,-5.1251,-5.1249,-5.1247,0,-5.1291,-5.1324,-5.1377,-5.138,-5.1363,-5.1389,-5.1383,-5.1375,-5.1387,-5.1396,-5.1403,-5.1417,-5.1425,-5.1437,-5.1402,-5.1356,-5.1465,-5.1394,-5.1454,-5.1455,-5.1481,-5.148,-5.1674,-5.1486,-5.1486,-5.1485,-5.1485,0,-5.1435,-5.1487,-5.1437,-5.147,-5.1527,-5.1481,-5.1539,-5.1526,-5.1521,-5.155,-5.1496,-5.1525,-5.1476,-5.1501,-5.1473,-5.1526,-5.1529,-5.1519,-5.1511,-5.1525,-5.1526,-5.1532,-5.1524,-5.149,-5.1489,-5.1488,-5.1487,0,-5.1593,-5.1561,-5.1615,-5.1595,-5.1591,-5.1634,-5.1617,-5.1647,-5.1626,-5.1664,-5.167,-5.1638,-5.1664,-5.1629,-5.1652,-5.1633,-5.1706,-5.1685,-5.1708,-5.1702,-5.1765,-5.176,-5.197,-5.1996,-5.1791,-5.1793,-5.1795,0,-5.1687,-5.1726,-5.1711,-5.1727,-5.1724,-5.1751,-5.1763,-5.172,-5.1734,-5.1734,-5.1764,-5.1785,-5.18,-5.1845,-5.1823,-5.184,-5.182,-5.1893,-5.1823,-5.1835,-5.1823,-5.1822,-5.1827,-5.1908,-5.191,-5.1912,-5.1914,0,-5.1859,-5.1841,-5.186,-5.1875,-5.1891,-5.19,-5.1905,-5.1921,-5.1876,-5.1896,-5.1922,-5.1934,-5.1957,-5.198,-5.1991,-5.1985,-5.1943,-5.1936,-5.1951,-5.1966,-5.1978,-5.1974,-5.1748,-5.1932,-5.193,-5.1929,-5.1928,-5.1927,-5.1989,-5.2021,-5.2016,-5.2039,-5.2039,-5.2045,-5.2073,-5.2055,-5.2077,-5.2093,-5.2066,-5.2099,-5.2095,-5.2107,-5.2106,-5.2132,-5.21,-5.2122,-5.2128,-5.2134,-5.2145,-5.1973,-5.2133,-5.2133,-5.2132,-5.2132,-5.2132,0,-5.2159,-5.2152,-5.2175,-5.2184,-5.2203,-5.2161,-5.2165,-5.2184,-5.2214,-5.2214,-5.223,-5.2261,-5.2283,-5.2263,-5.2281,-5.2306,-5.2287,-5.2313,-5.2311,-5.2311,-5.2171,-5.2157,-5.2328,-5.2328,-5.2328,-5.2328,-5.2327,-5.2327,-5.225,-5.2303,-5.2285,-5.2338,-5.2331,-5.2364,-5.237,-5.2376,-5.2376,-5.2413,-5.2431,-5.2418,-5.241,-5.2428,-5.2446,-5.244,-5.245,-5.2483,-5.247,-5.234,-5.232,-5.2302,-5.2289,-5.2485,-5.2485,-5.2608,-5.2609,-5.261]},{"header":{"parameterUnit":"m.s-1","parameterCategory":1,"la1":30.2991,"la2":30.254,"lo1":-89.0895,"lo2":-89.0444,"dy":0.0017,"dx":0.0017,"nx":28,"ny":28,"refTime":"2024-05-29T03:00:00:Z","depth":0,"parameterNumber":3,"parameterNumberName":"V-component_of_WINDS"},"data":[0,0,0,0,0,0,0,0,0,0,0,0,0,0,0,0,0,0,0,0,0,0,0,0,0,0,0,0,0,0,0,0,0,0,0,0,0,0,0,0,0,0,0,0,0,0,0,0,0,0,0,0,0,0,0,0,0,0,-0.8572,-0.8573,0,-0.8595,-0.8595,-0.8596,-0.8573,-0.8572,-0.8571,-0.857,-0.8594,-0.8596,-0.8597,0,0,0,0,0,0,0,0,0,0,0,0,0,-0.8509,-0.8511,-0.8572,-0.8573,-0.8573,-0.8595,-0.8595,-0.8596,-0.8573,-0.8572,-0.8571,-0.857,-0.8594,-0.8596,-0.8597,0,0,0,0,0,0,0,0,0,0,0,0,0,-0.8535,-0.8511,-0.8572,-0.8564,-0.8564,-0.8595,-0.8595,-0.8596,-0.8573,-0.8572,-0.8571,-0.8569,-0.8593,-0.8596,-0.8598,-0.8638,0,0,-0.8604,-0.8605,0,0,0,0,0,0,0,0,-0.8534,-0.8537,-0.8565,-0.8565,-0.8564,-0.858,-0.8582,-0.861,-0.8574,-0.857,-0.857,-0.8569,-0.8591,-0.8593,-0.86,-0.8639,-0.864,-0.8605,-0.8606,-0.8607,-0.8608,0,0,0,0,0,0,0,-0.8532,-0.8536,-0.8581,-0.8566,-0.8565,-0.856,-0.8562,-0.8587,-0.8588,-0.857,-0.8568,-0.8571,-0.859,-0.8598,-0.8601,-0.8641,-0.8605,-0.8607,-0.8608,-0.8609,-0.8713,-0.8715,0,0,0,0,0,0,-0.8531,-0.8535,-0.8581,-0.8582,-0.8545,-0.8562,-0.8564,-0.8576,-0.8587,-0.8587,-0.8572,-0.857,-0.8595,-0.8598,-0.8601,-0.8649,-0.8607,-0.8609,-0.861,-0.8712,-0.8714,-0.8715,0,0,0,0,0,0,-0.853,-0.8535,-0.858,-0.8558,-0.8563,-0.8564,-0.8578,-0.8577,-0.8585,-0.8589,-0.8589,-0.8581,-0.8594,-0.8598,-0.8629,-0.865,-0.861,-0.8612,-0.871,-0.8712,-0.8714,-0.8746,0,0,0,0,0,0,-0.8528,-0.8535,-0.855,-0.8559,-0.8565,-0.8607,-0.8579,-0.8579,-0.8589,-0.8586,-0.8597,-0.8597,-0.8593,-0.8626,-0.8631,-0.8652,-0.8614,-0.8708,-0.8711,-0.8714,-0.8743,-0.8749,-0.8754,0,0,0,0,0,-0.8526,-0.8559,-0.8551,-0.8557,-0.8584,-0.8608,-0.8612,-0.8607,-0.8591,-0.8606,-0.8609,-0.8597,-0.8646,-0.8629,-0.8635,-0.8657,-0.8707,-0.871,-0.8714,-0.874,-0.8748,-0.8754,0,0,0,0,0,0,-0.8554,-0.856,-0.8552,-0.8588,-0.8598,-0.8604,-0.8624,-0.8614,-0.8629,-0.8626,-0.8619,-0.8622,-0.8654,-0.8658,-0.8639,-0.8696,-0.8674,-0.8679,-0.8693,-0.8699,-0.8705,-0.8703,-0.8616,0,0,0,0,0,-0.8564,-0.8583,-0.8587,-0.8619,-0.8624,-0.8623,-0.8634,-0.8629,-0.8639,-0.8643,-0.8647,-0.8658,-0.8675,-0.8687,-0.8704,-0.8743,-0.8745,-0.8761,-0.8766,-0.8771,-0.8775,-0.8795,-0.8803,-0.8726,-0.8726,-0.8726,0,0,-0.8586,-0.8591,-0.8604,-0.8625,-0.8632,-0.8652,-0.8627,-0.8649,-0.8664,-0.8646,-0.8676,-0.8679,-0.869,-0.8725,-0.874,-0.8729,-0.8796,-0.8775,-0.8778,-0.878,-0.88,-0.8807,-0.8813,-0.8728,-0.8728,-0.8727,0,0,-0.8635,-0.8642,-0.8669,-0.8676,-0.8686,-0.8685,-0.8692,-0.8699,-0.8701,-0.873,-0.8717,-0.8734,-0.8765,-0.8773,-0.8782,-0.8833,-0.8823,-0.8839,-0.8867,-0.8887,-0.8893,-0.8899,-0.8917,-0.8924,-0.8843,-0.8843,-0.8843,0,-0.8661,-0.8691,-0.8684,-0.8707,-0.8716,-0.87,-0.8727,-0.8735,-0.875,-0.8757,-0.8744,-0.8782,-0.8789,-0.8825,-0.8837,-0.8845,-0.8852,-0.8838,-0.8893,-0.8898,-0.8903,-0.8921,-0.8928,-0.8845,-0.8844,-0.8844,-0.8844,0,-0.8722,-0.8743,-0.8763,-0.8778,-0.879,-0.8815,-0.8811,-0.8824,-0.8817,-0.8818,-0.8847,-0.8854,-0.8871,-0.8879,-0.8874,-0.8915,-0.8907,-0.8894,-0.8872,-0.8913,-0.8929,-0.8936,-0.8847,-0.8847,-0.8846,-0.8846,0,0,-0.8791,-0.8801,-0.8809,-0.8815,-0.8825,-0.8841,-0.8865,-0.8881,-0.8892,-0.8903,-0.8923,-0.8949,-0.8936,-0.8946,-0.894,-0.8958,-0.8998,-0.8942,-0.8942,-0.8953,-0.9044,-0.9054,-0.9062,-0.8991,-0.8992,-0.8993,-0.9043,0,-0.8842,-0.8883,-0.8877,-0.8917,-0.8936,-0.892,-0.8941,-0.8949,-0.895,-0.8966,-0.8966,-0.8985,-0.8966,-0.8972,-0.8988,-0.899,-0.9017,-0.8986,-0.901,-0.9011,-0.9008,-0.9071,-0.9082,-0.9129,-0.9049,-0.905,-0.9051,0,-0.8906,-0.8919,-0.8961,-0.8967,-0.8975,-0.8994,-0.9008,-0.9023,-0.9032,-0.9031,-0.9041,-0.9032,-0.9056,-0.9032,-0.9065,-0.9045,-0.9054,-0.9056,-0.9057,-0.906,-0.9034,-0.9076,-0.9144,-0.9151,-0.9061,-0.906,-0.906,0,-0.8953,-0.8981,-0.9009,-0.9015,-0.9023,-0.9036,-0.904,-0.9048,-0.9058,-0.907,-0.9076,-0.9092,-0.91,-0.9112,-0.9107,-0.9091,-0.9141,-0.9117,-0.9141,-0.9141,-0.9153,-0.9153,-0.9225,-0.9158,-0.9158,-0.9158,-0.9158,0,-0.901,-0.9037,-0.903,-0.9048,-0.9077,-0.9069,-0.9097,-0.9099,-0.9106,-0.9123,-0.911,-0.9127,-0.912,-0.9137,-0.9133,-0.9161,-0.9164,-0.9165,-0.9163,-0.9166,-0.9166,-0.9173,-0.917,-0.916,-0.9159,-0.9159,-0.9159,0,-0.9068,-0.9065,-0.9095,-0.9099,-0.9101,-0.9122,-0.9126,-0.9142,-0.9141,-0.9163,-0.9168,-0.9167,-0.9185,-0.9181,-0.9202,-0.92,-0.9234,-0.9229,-0.9231,-0.923,-0.9255,-0.9253,-0.9334,-0.9344,-0.927,-0.9271,-0.9272,0,-0.9105,-0.9125,-0.9131,-0.9142,-0.9147,-0.9164,-0.9174,-0.9167,-0.9178,-0.9188,-0.9204,-0.9221,-0.9234,-0.9264,-0.9265,-0.928,-0.9276,-0.9303,-0.9278,-0.928,-0.9277,-0.9276,-0.9278,-0.9308,-0.9309,-0.931,-0.931,0,-0.9172,-0.9169,-0.9183,-0.9198,-0.921,-0.9221,-0.923,-0.924,-0.9233,-0.9246,-0.9264,-0.9274,-0.9295,-0.9312,-0.9326,-0.933,-0.9319,-0.9318,-0.9324,-0.9328,-0.9328,-0.9329,-0.9246,-0.9316,-0.9316,-0.9315,-0.9315,-0.9315,-0.922,-0.9237,-0.9244,-0.9261,-0.9267,-0.9276,-0.9291,-0.9292,-0.9307,-0.9323,-0.9317,-0.9338,-0.9345,-0.9363,-0.9369,-0.9385,-0.9375,-0.9384,-0.9387,-0.9389,-0.9392,-0.9325,-0.9387,-0.9387,-0.9387,-0.9387,-0.9387,0,-0.9286,-0.929,-0.9305,-0.9319,-0.9332,-0.9319,-0.9329,-0.9341,-0.9359,-0.9367,-0.938,-0.9401,-0.9417,-0.9419,-0.9434,-0.9447,-0.9442,-0.9451,-0.945,-0.9452,-0.94,-0.9393,-0.9454,-0.9454,-0.9454,-0.9454,-0.9454,-0.9454,-0.9322,-0.935,-0.9348,-0.9378,-0.9381,-0.9401,-0.9408,-0.9416,-0.9422,-0.9445,-0.9459,-0.9459,-0.9464,-0.948,-0.9494,-0.9494,-0.95,-0.9511,-0.951,-0.9462,-0.9455,-0.9449,-0.9442,-0.9513,-0.9513,-0.9559,-0.956,-0.956]}]]